Regional Weather Roundup
Issued by NWS

Home | Current Version | Previous Version | Graphics & Text | Print | Product List | Glossary On
Versions: 1 2 3 4 5 6 7 8 9 10 11 12 13 14 15 16 17 18 19 20 21 22 23 24 25 26 27 28 29 30 31 32 33 34 35 36 37 38 39 40 41 42 43 44 45 46 47 48 49 50
554
ASUS43 KLSX 250610
RWRMO

WEATHER SUMMARY FOR MISSOURI
NATIONAL WEATHER SERVICE SPRINGFIELD MO
100 AM CDT TUE APR 25 2017

NOTE: "FAIR" INDICATES FEW OR NO CLOUDS BELOW 12,000 FEET WITH NO
       SIGNIFICANT WEATHER AND/OR OBSTRUCTIONS TO VISIBILITY.
       CURRENT SKY AND/OR WEATHER CONDITIONS ARE NOT AVAILABLE FOR
       CHILLICOTHE AND FARMINGTON.

MOZ001>031-035>038-043-044-053-054-250700-
...NORTHERN AND WESTERN MISSOURI...

CITY           SKY/WX    TMP DP  RH WIND       PRES   REMARKS
KANSAS CTY INT MOCLDY    61  44  53 S10       29.58R
6HR MIN TEMP:  58; 6HR MAX TEMP:  72;

KANSAS C DTWN  CLOUDY    66  44  45 S12       29.58S
6HR MIN TEMP:  65; 6HR MAX TEMP:  74;

LEE`S SUMMIT   CLOUDY    63  43  48 S12       29.59F
6HR MIN TEMP:  61; 6HR MAX TEMP:  73;

ST JOSEPH      MOCLDY    60  46  59 S8        29.56F
6HR MIN TEMP:  60; 6HR MAX TEMP:  72;

CHILLICOTHE      N/A     55  42  61 CALM      29.62S
6HR MIN TEMP:  53; 6HR MAX TEMP:  75;

KIRKSVILLE     CLEAR     49  32  52 SE7       29.64S
6HR MIN TEMP:  49; 6HR MAX TEMP:  72;


$$
MOZ066>068-077>081-088>096-101>105-250700-
...SOUTHWEST MISSOURI...

CITY           SKY/WX    TMP DP  RH WIND       PRES   REMARKS
SPRINGFIELD    CLOUDY    60  38  43 S16       29.66F
6HR MIN TEMP:  57; 6HR MAX TEMP:  72;

JOPLIN         CLEAR     59  44  57 S8        29.64F
6HR MIN TEMP:  56; 6HR MAX TEMP:  72;

BRANSON        CLEAR     54  39  58 CALM      29.71F

$$
MOZ032>034-039>042-045>050-055>058-069>072-250700-
...CENTRAL MISSOURI...

CITY           SKY/WX    TMP DP  RH WIND       PRES   REMARKS
COLUMBIA       CLEAR     57  38  48 S9        29.67R
6HR MIN TEMP:  55; 6HR MAX TEMP:  74;

JEFFERSON CITY CLEAR     53  40  61 SE3       29.67R
6HR MIN TEMP:  53; 6HR MAX TEMP:  78;

ROLLA          CLEAR     57  42  57 S13       29.69S
6HR MIN TEMP:  57; 6HR MAX TEMP:  70;

SEDALIA        CLOUDY    59  39  47 S13       29.64S
6HR MIN TEMP:  56; 6HR MAX TEMP:  72;

WHITEMAN AFB   MOCLDY    54  40  59 S7        29.61F
OSAGE BEACH    MOCLDY    59  40  49 S8        29.68F

$$
MOZ051-052-059>065-250700-
...EAST CENTRAL MISSOURI...

CITY           SKY/WX    TMP DP  RH WIND       PRES   REMARKS
ST LOUIS INTL  PTCLDY    63  39  41 S7        29.72S
6HR MIN TEMP:  63; 6HR MAX TEMP:  74;

SPIRIT OF STL  CLEAR     59  44  57 S3        29.70F
6HR MIN TEMP:  52; 6HR MAX TEMP:  73;

ST CHARLES     CLEAR     52  42  69 N3        29.70F
6HR MIN TEMP:  52; 6HR MAX TEMP:  74;


$$
MOZ072>076-082>087-097>100-106>115-250700-
...SOUTH CENTRAL AND SOUTHEAST MISSOURI...

CITY           SKY/WX    TMP DP  RH WIND       PRES   REMARKS
CAPE GIRARDEAU CLEAR     53  50  89 SE8       29.74S
6HR MIN TEMP:  52; 6HR MAX TEMP:  71;

FARMINGTON     CLEAR     57  49  74 SE3       29.74F
6HR MIN TEMP:  54; 6HR MAX TEMP:  70;

POPLAR BLUFF   CLEAR     56  54  93 CALM      29.74S
6HR MIN TEMP:  56; 6HR MAX TEMP:  71;

WEST PLAINS    CLEAR     58  45  62 S8        29.74F
6HR MIN TEMP:  58; 6HR MAX TEMP:  72;


$$




USA.gov is the U.S. government's official web portal to all federal, state and local government web resources and services.